Time,TemperatureF,DewpointF,PressureIn,WindDirection,WindDirectionDegrees,WindSpeedMPH,WindSpeedGustMPH,Humidity,HourlyPrecipIn,Conditions,Clouds,dailyrainin,SoftwareType,DateUTC
2013-04-24 00:01:00,60.0,48.0,30.03,South,190,0.0,6.0,64,0.00,,,0.00,,2013-04-24 04:01:00,
2013-04-24 00:03:00,60.0,48.0,30.03,South,190,0.0,6.0,64,0.00,,,0.00,,2013-04-24 04:03:00,
2013-04-24 00:12:00,60.0,48.0,30.03,South,190,0.0,6.0,64,0.00,,,0.00,,2013-04-24 04:12:00,
2013-04-24 00:23:00,60.0,48.0,30.03,South,190,0.0,6.0,64,0.00,,,0.00,,2013-04-24 04:23:00,
2013-04-24 00:53:00,55.0,48.0,30.03,South,190,0.0,0.0,78,0.00,,,0.00,,2013-04-24 04:53:00,
2013-04-24 01:02:00,55.0,48.0,30.03,South,190,0.0,0.0,78,0.00,,,0.00,,2013-04-24 05:02:00,
2013-04-24 01:13:00,55.0,48.0,30.03,South,190,0.0,0.0,78,0.00,,,0.00,,2013-04-24 05:13:00,
2013-04-24 01:22:00,55.0,50.0,30.03,South,191,0.0,0.0,83,0.00,,,0.00,,2013-04-24 05:22:00,
2013-04-24 01:32:00,55.0,50.0,30.03,South,191,0.0,0.0,83,0.00,,,0.00,,2013-04-24 05:32:00,
2013-04-24 01:42:00,55.0,50.0,30.03,South,191,0.0,0.0,83,0.00,,,0.00,,2013-04-24 05:42:00,
2013-04-24 01:52:00,55.0,50.0,30.03,South,191,0.0,0.0,83,0.00,,,0.00,,2013-04-24 05:52:00,
2013-04-24 02:22:00,55.0,51.0,30.06,South,190,0.0,0.0,85,0.00,,,0.00,,2013-04-24 06:22:00,
2013-04-24 02:33:00,55.0,51.0,30.06,South,190,0.0,0.0,85,0.00,,,0.00,,2013-04-24 06:33:00,
2013-04-24 02:42:00,55.0,51.0,30.06,South,190,0.0,0.0,85,0.00,,,0.00,,2013-04-24 06:42:00,
2013-04-24 02:51:00,56.0,50.0,30.06,South,190,0.0,0.0,79,0.00,,,0.00,,2013-04-24 06:51:00,
2013-04-24 03:02:00,56.0,50.0,30.06,South,190,0.0,0.0,79,0.00,,,0.00,,2013-04-24 07:02:00,
2013-04-24 03:11:00,56.0,50.0,30.06,South,190,0.0,0.0,79,0.00,,,0.00,,2013-04-24 07:11:00,
2013-04-24 03:22:00,58.0,53.0,30.06,South,189,0.0,3.0,82,0.00,,,0.00,,2013-04-24 07:22:00,
2013-04-24 03:32:00,58.0,53.0,30.06,South,189,0.0,3.0,82,0.00,,,0.00,,2013-04-24 07:32:00,
2013-04-24 03:42:00,58.0,53.0,30.06,South,189,0.0,3.0,82,0.00,,,0.00,,2013-04-24 07:42:00,
2013-04-24 03:52:00,58.0,53.0,30.03,South,191,0.0,0.0,82,0.00,,,0.00,,2013-04-24 07:52:00,
2013-04-24 04:02:00,58.0,53.0,30.03,South,191,0.0,0.0,82,0.00,,,0.00,,2013-04-24 08:02:00,
2013-04-24 04:12:00,58.0,53.0,30.03,South,191,0.0,0.0,82,0.00,,,0.00,,2013-04-24 08:12:00,
2013-04-24 04:21:00,58.0,53.0,30.03,South,191,0.0,0.0,82,0.00,,,0.00,,2013-04-24 08:21:00,
2013-04-24 06:53:00,57.0,50.0,30.00,NNW,346,0.0,0.0,77,0.00,,,0.00,,2013-04-24 10:53:00,
2013-04-24 07:03:00,57.0,50.0,30.00,NNW,346,0.0,0.0,77,0.00,,,0.00,,2013-04-24 11:03:00,
2013-04-24 07:12:00,57.0,50.0,30.00,NNW,346,0.0,0.0,77,0.00,,,0.00,,2013-04-24 11:12:00,
2013-04-24 07:21:00,57.0,50.0,30.00,NNW,346,0.0,0.0,77,0.00,,,0.00,,2013-04-24 11:21:00,
2013-04-24 08:52:00,68.0,50.0,30.00,NW,307,0.0,5.0,53,0.00,,,0.00,,2013-04-24 12:52:00,
2013-04-24 09:01:00,68.0,50.0,30.00,NW,307,0.0,5.0,53,0.00,,,0.00,,2013-04-24 13:01:00,
2013-04-24 09:12:00,68.0,50.0,30.00,NW,307,0.0,5.0,53,0.00,,,0.00,,2013-04-24 13:12:00,
2013-04-24 09:22:00,68.0,51.0,30.00,NW,307,0.0,0.0,54,0.00,,,0.00,,2013-04-24 13:22:00,
2013-04-24 09:32:00,68.0,51.0,30.00,NW,307,0.0,0.0,54,0.00,,,0.00,,2013-04-24 13:32:00,
2013-04-24 09:41:00,68.0,51.0,30.00,NW,307,0.0,0.0,54,0.00,,,0.00,,2013-04-24 13:41:00,
2013-04-24 09:52:00,68.0,51.0,30.00,NW,307,0.0,0.0,54,0.00,,,0.00,,2013-04-24 13:52:00,
2013-04-24 11:22:00,95.0,56.0,30.00,SSW,203,4.0,7.0,27,0.00,,,0.00,,2013-04-24 15:22:00,
2013-04-24 11:33:00,95.0,56.0,30.00,SSW,203,4.0,7.0,27,0.00,,,0.00,,2013-04-24 15:33:00,
2013-04-24 11:43:00,95.0,56.0,30.00,SSW,203,4.0,7.0,27,0.00,,,0.00,,2013-04-24 15:43:00,
2013-04-24 11:53:00,82.0,52.0,30.00,South,177,5.0,13.0,36,0.00,,,0.00,,2013-04-24 15:53:00,
2013-04-24 12:03:00,82.0,52.0,30.00,South,177,5.0,13.0,36,0.00,,,0.00,,2013-04-24 16:03:00,
2013-04-24 12:12:00,82.0,52.0,30.00,South,177,5.0,13.0,36,0.00,,,0.00,,2013-04-24 16:12:00,
2013-04-24 12:23:00,85.0,52.0,30.00,South,174,11.0,22.0,32,0.00,,,0.00,,2013-04-24 16:23:00,
2013-04-24 12:32:00,85.0,52.0,30.00,South,174,11.0,22.0,32,0.00,,,0.00,,2013-04-24 16:32:00,
2013-04-24 12:42:00,85.0,52.0,30.00,South,174,11.0,22.0,32,0.00,,,0.00,,2013-04-24 16:42:00,
2013-04-24 12:52:00,85.0,50.0,29.97,South,175,9.0,22.0,30,0.00,,,0.00,,2013-04-24 16:52:00,
2013-04-24 13:02:00,85.0,50.0,29.97,South,175,9.0,22.0,30,0.00,,,0.00,,2013-04-24 17:02:00,
2013-04-24 13:12:00,85.0,50.0,29.97,South,175,9.0,22.0,30,0.00,,,0.00,,2013-04-24 17:12:00,
2013-04-24 13:22:00,85.0,49.0,30.00,SSE,158,7.0,17.0,29,0.00,,,0.00,,2013-04-24 17:22:00,
2013-04-24 13:32:00,85.0,49.0,30.00,SSE,158,7.0,17.0,29,0.00,,,0.00,,2013-04-24 17:32:00,
2013-04-24 13:42:00,85.0,49.0,30.00,SSE,158,7.0,17.0,29,0.00,,,0.00,,2013-04-24 17:42:00,
2013-04-24 13:51:00,85.0,49.0,30.00,SSE,158,7.0,17.0,29,0.00,,,0.00,,2013-04-24 17:51:00,
2013-04-24 15:22:00,70.0,65.0,30.00,SSW,212,5.0,15.0,83,0.00,,,0.00,,2013-04-24 19:22:00,
2013-04-24 15:32:00,70.0,65.0,30.00,SSW,212,5.0,15.0,83,0.00,,,0.00,,2013-04-24 19:32:00,
2013-04-24 15:42:00,70.0,65.0,30.00,SSW,212,5.0,15.0,83,0.00,,,0.00,,2013-04-24 19:42:00,
2013-04-24 15:52:00,70.0,65.0,30.00,SSW,212,5.0,15.0,83,0.00,,,0.00,,2013-04-24 19:52:00,
2013-04-24 16:22:00,70.0,64.0,30.00,SSW,210,3.0,12.0,82,0.00,,,0.00,,2013-04-24 20:22:00,
2013-04-24 16:32:00,70.0,64.0,30.00,SSW,210,3.0,12.0,82,0.00,,,0.00,,2013-04-24 20:32:00,
2013-04-24 16:42:00,70.0,64.0,30.00,SSW,210,3.0,12.0,82,0.00,,,0.00,,2013-04-24 20:42:00,
2013-04-24 16:52:00,74.0,66.0,30.00,South,188,7.0,15.0,77,0.00,,,0.00,,2013-04-24 20:52:00,
2013-04-24 17:02:00,74.0,66.0,30.00,South,188,7.0,15.0,77,0.00,,,0.00,,2013-04-24 21:02:00,
2013-04-24 17:12:00,74.0,66.0,30.00,South,188,7.0,15.0,77,0.00,,,0.00,,2013-04-24 21:12:00,
2013-04-24 17:22:00,74.0,66.0,30.00,South,188,7.0,15.0,77,0.00,,,0.00,,2013-04-24 21:22:00,
2013-04-24 17:53:00,73.0,63.0,30.00,SSW,192,8.0,17.0,71,0.00,,,0.00,,2013-04-24 21:53:00,
2013-04-24 18:03:00,73.0,63.0,30.00,SSW,192,8.0,17.0,71,0.00,,,0.00,,2013-04-24 22:03:00,
2013-04-24 18:12:00,73.0,63.0,30.00,SSW,192,8.0,17.0,71,0.00,,,0.00,,2013-04-24 22:12:00,
2013-04-24 18:22:00,72.0,62.0,30.00,South,178,11.0,20.0,70,0.00,,,0.00,,2013-04-24 22:22:00,
2013-04-24 18:33:00,72.0,62.0,30.00,South,178,11.0,20.0,70,0.00,,,0.00,,2013-04-24 22:33:00,
2013-04-24 18:42:00,72.0,62.0,30.00,South,178,11.0,20.0,70,0.00,,,0.00,,2013-04-24 22:42:00,
2013-04-24 18:52:00,72.0,62.0,30.00,South,178,11.0,20.0,70,0.00,,,0.00,,2013-04-24 22:52:00,
2013-04-24 19:52:00,57.0,53.0,30.09,WSW,257,8.0,11.0,85,0.00,,,0.00,,2013-04-24 23:52:00,
2013-04-24 20:02:00,57.0,53.0,30.09,WSW,257,8.0,11.0,85,0.00,,,0.00,,2013-04-25 00:02:00,
2013-04-24 20:12:00,57.0,53.0,30.09,WSW,257,8.0,11.0,85,0.00,,,0.00,,2013-04-25 00:12:00,
2013-04-24 20:22:00,55.0,51.0,30.09,West,274,4.0,13.0,86,0.00,,,0.00,,2013-04-25 00:22:00,
2013-04-24 20:32:00,55.0,51.0,30.09,West,274,4.0,13.0,86,0.00,,,0.00,,2013-04-25 00:32:00,
2013-04-24 20:42:00,55.0,51.0,30.09,West,274,4.0,13.0,86,0.00,,,0.00,,2013-04-25 00:42:00,
2013-04-24 20:52:00,55.0,51.0,30.09,West,274,4.0,13.0,86,0.00,,,0.00,,2013-04-25 00:52:00,
2013-04-24 21:53:00,52.0,48.0,30.18,WSW,246,4.0,8.0,86,0.00,,,0.00,,2013-04-25 01:53:00,
2013-04-24 22:02:00,52.0,48.0,30.18,WSW,246,4.0,8.0,86,0.00,,,0.00,,2013-04-25 02:02:00,
2013-04-24 22:11:00,52.0,48.0,30.18,WSW,246,4.0,8.0,86,0.00,,,0.00,,2013-04-25 02:11:00,
2013-04-24 22:22:00,52.0,48.0,30.18,WSW,246,4.0,8.0,86,0.00,,,0.00,,2013-04-25 02:22:00,
2013-04-24 23:52:00,51.0,43.0,30.24,WNW,291,5.0,9.0,74,0.00,,,0.00,,2013-04-25 03:52:00,